Other Surface Observations
Issued by NWS

Home | Current Version | Previous Version | Text Only | Print | Product List | Glossary On
Versions: 1 2 3 4 5 6 7 8 9 10 11 12 13 14 15 16 17 18 19 20 21 22 23 24 25 26 27 28 29 30 31 32 33 34 35 36 37 38 39 40 41 42 43 44 45 46 47 48 49 50
000
SXUS52 KTAE 270518
OSOTAE
OSOTAE
North Florida/South Alabama/Southwest Georgia Weather Roundup
National Weather Service Tallahassee Florida
100 AM EDT MON APR 27 2015

Note: "fair" indicates few or no clouds below 12,000 feet with no
significant weather and/or obstructions to visibility.

!FLZ017-115-028-034-025-270600
...North Florida...

CITY           SKY/WX    TMP DP  RH WIND       PRES   REMARKS
TALLAHASSEE    PTCLDY    74  70  87 NW5       29.72F
APALACHICOLA   MOCLDY    75  71  87 NW3       29.72S
PERRY          CLOUDY    73  72  96 NW3       29.72F
CROSS CITY       N/A     75  72  90 CALM      29.70F
JACKSONVILLE   CLOUDY    74  69  85 W6        29.70F
$$

!FLZ112-006-005-002-011-270600
...Florida Panhandle...

CITY           SKY/WX    TMP DP  RH WIND       PRES   REMARKS
MARIANNA       LGT RAIN  71  70  96 CALM      29.72F
BONIFAY          N/A     68  66  93 CALM      29.74F
PANAMA CITY NW FAIR      71  69  93 NW3       29.72F
TYNDALL AFB    PTCLDY    72  70  96 NW5       29.73S
TYND DRONE APT MOCLDY    71  72 100 NW2       29.72F
DE FUNIAK SPR  FAIR      69  69 100 CALM      29.75S FOG
EGLIN AFB      CLOUDY    74  72  95 NW3       29.73S
DESTIN         CLOUDY    76  73  91 VRB3      29.73S
HURLBURT       CLOUDY    75  72  88 CALM      29.71F
CRESTVIEW      CLOUDY    68  67  96 CALM      29.75R
PENSACOLA      CLOUDY    74  72  93 W8        29.74S
$$

!ALZ063-066-270600
...South Alabama...

CITY           SKY/WX    TMP DP  RH WIND       PRES   REMARKS
DOTHAN         CLOUDY    72  66  81 W6        29.77S
OZARK CAIRNS   CLOUDY    70  64  81 NW5       29.73S
FT RUCKER HELI CLOUDY    66  64  93 CALM      29.73S
RUCKER HELI 3  NOT AVBL
RUCKER HELI 2  FAIR      69  69 100 NW3       29.73S
FLORALA APT    CLOUDY    69  66  90 CALM      29.76R
ANDALUSIA      CLOUDY    71  64  78 CALM      29.74S
TROY           CLOUDY    66  63  90 N5        29.76R
EUFALA         FAIR      72  60  66 VRB3      29.73R
MOBILE         CLOUDY    70  69  97 W3        29.75S
$$

!GAZ120>161-270600
...Southwest and South Central Georgia...

CITY           SKY/WX    TMP DP  RH WIND       PRES   REMARKS
THOMASVILLE    FAIR      72  68  88 W3        29.74S
BAINBRIDGE     PTCLDY    73  70  88 W3        29.73F
MOODY AFB      CLOUDY    75  68  80 SW7       29.71R
VALDOSTA       MOCLDY    73  68  84 VRB3      29.72S
MOULTRIE       MOCLDY    72  70  94 SW3       29.74R
BLAKELY        MOCLDY    70  70 100 CALM      29.73F
ALBANY         PTCLDY    69  66  90 W3        29.74S
TIFTON         FAIR      73  64  73 W3        29.72S
FITZGERALD     FAIR      73  67  81 CALM      29.73F
CORDELE        FAIR      68  64  85 NW3       29.73S
AMERICUS       FAIR      70  59  68 N7        29.75S
HOMERVILLE     FAIR      75  72  88 SW5       29.72S
$$

!GMZ750-755-770-775-270600
...Coastal and Buoy Obs...

STATION/POSITION TIME  TEMP    WIND        PRES    VSBY  WAVE
                       AIR SEA DIR/SP/G                  HT/PER
                 (UTC) (F)     (DEG/KT/KT) (MB)    (MI)  (FT/S)
KEATON BEACH     0500   77     280/  6/  8 1005.9F
CEDAR KEY        0500   78     260/  9/ 12 1006.9F
C TOWER          0500   75     200/ 10/ 11 1006.3F
APALACHICOLA BUO 0450   78 77  240/  8/ 10 1007.7R         4/ 6
PANAMA CITY BUOY 0450   77 76  230/ 10/ 10 1007.0F         4/ 7
MOBILE BUOY      0450   77 77   60/  4/  4 1007.4F         3/ 7
ORANGE BCH AL BU 0450   75 75  170/  4/  4 1005.6F         2/ 6
$$



USA.gov is the U.S. government's official web portal to all federal, state and local government web resources and services.